Weather Roundup
Issued by NWS Springfield, MO

Home | Current Version | Previous Version | Text Only | Print | Product List | Glossary On
Versions: 1 2 3 4 5 6 7 8 9 10 11 12 13 14 15 16 17 18 19 20 21 22 23 24 25 26 27 28 29 30 31 32 33 34 35 36 37 38 39 40 41 42 43 44 45 46 47 48 49 50
000
NZUS99 KSGF 280159
HRRSGF

HOURLY WEATHER
NATIONAL WEATHER SERVICE SPRINGFIELD MO
900 PM CDT WED MAY 27 2015

......SGF CWA......

CITY           SKY/WX    TMP DP  RH WIND       PRES   REMARKS
SPRINGFIELD    CLEAR     75  63  66 E7        30.08R
JOPLIN         PTCLDY    74  67  78 E5        30.06R
WEST PLAINS    CLOUDY    70  64  81 CALM      30.11R
ROLLA          CLEAR     67  60  78 CALM      30.09R
OSAGE BEACH    CLEAR     68  59  73 CALM      30.10R
BRANSON        PTCLDY    72  66  83 CALM      30.10R

......SURROUNDING SGF CWA......

CITY           SKY/WX    TMP DP  RH WIND       PRES   REMARKS
CHANUTE        MOCLDY    74  66  76 E5        30.05R
PARSONS        CLOUDY    73  69  87 CALM      30.06R
COFFEYVILLE    CLOUDY    76  68  76 E3        30.04R
EMPORIA        CLOUDY    71  63  75 E7        30.05R
SILOAM SPRINGS PTCLDY    73  61  64 S5        30.09R
HARRISON AR    CLOUDY    69  67  93 S5        30.10R
NEAR YELLVILLE MOCLDY    73  66  78 CALM      30.06R

......KANSAS AND MISSOURI......

CITY           SKY/WX    TMP DP  RH WIND       PRES   REMARKS
KANSAS CTY INT MOCLDY    73  54  51 SE9       30.07R
DOWNTOWN KC    MOCLDY    77  53  43 SE6       30.05S
COLUMBIA       CLEAR     72  61  68 E3        30.10R
SEDALIA        CLEAR     73  57  57 E3        30.09R
ST JOSEPH      PTCLDY    73  55  53 SE6       30.05F
ST LOUIS       PTCLDY    76  57  51 N6        30.09R
SPIRIT OF STL  CLEAR     67  62  84 CALM      30.08R
KIRKSVILLE     PTCLDY    66  61  84 CALM      30.10R
WICHITA        CLOUDY    76  65  68 SE8       30.03R
TOPEKA         MOCLDY    73  57  57 E3        30.05S
OLATHE         MOCLDY    72  54  53 SE6       30.07R

......TENNESSEE......

CITY           SKY/WX    TMP DP  RH WIND       PRES   REMARKS
MEMPHIS        CLOUDY    73  66  78 SE7       30.09S
NASHVILLE      CLOUDY    69  68  96 CALM      30.18R

......ARKANSAS.......

CITY           SKY/WX    TMP DP  RH WIND       PRES   REMARKS
FAYETTEVILLE   PTCLDY    69  66  90 CALM      30.08S
FT SMITH       PTCLDY    76  66  71 CALM      30.03S
LITTLE ROCK    PTCLDY    76  67  73 SE3       30.06R

......OKLAHOMA.......

CITY           SKY/WX    TMP DP  RH WIND       PRES   REMARKS
TULSA          CLOUDY    75  67  76 SE6       30.03R
PONCA CITY     CLOUDY    77  67  71 S7        30.02R
MCALESTER      PTCLDY    71  67  87 E5        30.03R
OKLAHOMA CITY  CLOUDY    70  65  84 SE6       30.01S

......IOWA............

CITY           SKY/WX    TMP DP  RH WIND       PRES   REMARKS
DES MOINES     PTCLDY    75  58  55 S6        30.04S
QUAD CITIES    CLEAR     68  59  73 CALM      30.06R

......ILLINOIS........

CITY           SKY/WX    TMP DP  RH WIND       PRES   REMARKS
QUINCY         PTCLDY    71  60  68 SE3       30.09R
CHICAGO        CLEAR     67  54  63 CALM      30.09R




USA.gov is the U.S. government's official web portal to all federal, state and local government web resources and services.